Location: Black Swamp Observatory
(41.3920°N, 84.1250°W)
Time: 02:23:29
(UTC-05:00)

STARLINK-5161 - Pass Details

Date: 27 November 2022
Orbit: 539 x 540 km, 53.2° (Epoch: 06 February)

Event Time Altitude Azimuth Distance (km) Brightness Sun altitude
Exits shadow 03:56:37 - 114° (ESE) 2,501 ? -41.2°
Enters shadow 04:58:22 -56° 315° (NW) 11,204 ? -29.6°
Sets 05:35:31 0° 161° (SSE) 2,648 ? -22.7°
